FW7515 Weather Reports


time (UTC)temp
F
wind
direction
speed
knots
gust
knots
rain 1hr
in
rain 24hr
in
rain mn
in
humidity
%
barometer
mb
20260509174017 85 37 5.2 7.8 0.00 0.00 0.00 50 1010.7
20260509173516 85 15 2.6 5.2 0.00 0.00 0.00 50 1010.6
20260509173034 85 35 2.6 6.1 0.00 0.00 0.00 51 1010.7
20260509172532 84 12 2.6 5.2 0.00 0.00 0.00 50 1010.8
20260509172050 84 307 2.6 5.2 0.00 0.00 0.00 50 1010.8
20260509171528 85 346 2.6 4.3 0.00 0.00 0.00 50 1011.0
20260509171026 84 12 2.6 6.1 0.00 0.00 0.00 50 1010.9
20260509170525 83 329 2.6 7.8 0.00 0.00 0.00 52 1011.1
20260509170022 83 11 2.6 7.8 0.00 0.00 0.00 52 1011.0
20260509165520 83 9 3.5 6.1 0.00 0.00 0.00 52 1011.0
20260509165018 83 13 2.6 10.4 0.00 0.00 0.00 51 1011.2
20260509164515 83 351 3.5 6.1 0.00 0.00 0.00 50 1011.1
20260509164034 83 13 4.3 8.7 0.00 0.00 0.00 52 1011.0
20260509163532 83 356 3.5 7.0 0.00 0.00 0.00 52 1011.1
20260509163029 83 325 2.6 7.0 0.00 0.00 0.00 52 1011.2
20260509162528 83 326 3.5 6.1 0.00 0.00 0.00 52 1011.2
20260509162146 83 334 3.5 6.1 0.00 0.00 0.00 52 1011.2
20260509161523 82 337 2.6 7.8 0.00 0.00 0.00 52 1011.1
20260509161021 82 356 3.5 5.2 0.00 0.00 0.00 52 1011.0
20260509160519 82 6 2.6 6.1 0.00 0.00 0.00 52 1011.0
20260509160017 82 345 2.6 6.1 0.00 0.00 0.00 53 1011.2
20260509155516 81 32 4.3 9.6 0.00 0.00 0.00 53 1010.9
20260509155034 81 30 3.5 9.6 0.00 0.00 0.00 54 1010.9
20260509154532 81 13 3.5 7.8 0.00 0.00 0.00 55 1010.9
20260509154030 81 16 3.5 7.8 0.00 0.00 0.00 56 1010.9
20260509153528 81 335 4.3 6.1 0.00 0.00 0.00 56 1010.9
20260509153025 80 6 3.5 7.0 0.00 0.00 0.00 56 1010.9
20260509152523 80 30 3.5 7.0 0.00 0.00 0.00 56 1011.0
20260509152021 80 334 3.5 7.0 0.00 0.00 0.00 57 1010.9
20260509151519 80 347 2.6 5.2 0.00 0.00 0.00 59 1011.0
20260509151016 80 340 1.7 4.3 0.00 0.00 0.00 59 1011.0
20260509150534 79 336 2.6 5.2 0.00 0.00 0.00 62 1011.0
20260509150032 78 343 3.5 6.1 0.00 0.00 0.00 61 1011.0
20260509145529 79 352 3.5 7.0 0.00 0.00 0.00 61 1011.1
20260509145028 78 18 2.6 5.2 0.00 0.00 0.00 63 1011.2
20260509144526 78 355 3.5 7.0 0.00 0.00 0.00 64 1011.2
20260509144024 77 353 3.5 5.2 0.00 0.00 0.00 65 1011.1
20260509143522 77 353 2.6 5.2 0.00 0.00 0.00 67 1011.2
20260509143020 77 4 2.6 6.1 0.00 0.00 0.00 68 1011.2
20260509142518 76 315 2.6 5.2 0.00 0.00 0.00 71 1011.1
20260509142016 76 330 3.5 5.2 0.00 0.00 0.00 74 1011.2
20260509141554 75 333 2.6 4.3 0.00 0.00 0.00 76 1011.2
20260509141032 75 342 1.7 4.3 0.00 0.00 0.00 77 1011.2
20260509140530 75 338 2.6 4.3 0.00 0.00 0.00 77 1011.3
20260509140029 75 316 2.6 4.3 0.00 0.00 0.00 77 1011.3
20260509135546 75 5 1.7 3.5 0.00 0.00 0.00 77 1011.3
20260509135025 75 360 1.7 3.5 0.00 0.00 0.00 77 1011.3
20260509134603 75 12 1.7 3.5 0.00 0.00 0.00 78 1011.3
20260509134021 74 350 1.7 5.2 0.00 0.00 0.00 79 1011.1
20260509133520 74 5 1.7 3.5 0.00 0.00 0.00 80 1011.2
20260509133018 74 356 1.7 4.3 0.00 0.00 0.00 80 1011.0
20260509132516 73 2 1.7 4.3 0.00 0.00 0.00 80 1011.0
20260509132035 73 29 1.7 4.3 0.00 0.00 0.00 81 1011.1
20260509131533 72 359 1.7 3.5 0.00 0.00 0.00 83 1011.1
20260509131031 72 22 1.7 3.5 0.00 0.00 0.00 84 1011.0
20260509130529 71 341 2.6 4.3 0.00 0.00 0.00 85 1011.1
20260509130047 71 348 1.7 3.5 0.00 0.00 0.00 86 1011.0
20260509125524 70 352 1.7 4.3 0.00 0.00 0.00 86 1010.9
20260509125022 70 329 1.7 4.3 0.00 0.00 0.00 87 1010.9
20260509124520 70 348 1.7 4.3 0.00 0.00 0.00 88 1010.9
20260509124018 69 322 0.9 3.5 0.00 0.00 0.00 89 1010.9
20260509123516 69 296 0.9 3.5 0.00 0.00 0.00 89 1010.9
20260509123034 69 327 0.9 2.6 0.00 0.01 0.00 89 1010.9
20260509122532 68 334 0.9 3.5 0.00 0.02 0.00 90 1010.9
20260509122029 68 309 1.7 3.5 0.00 0.02 0.00 90 1010.8
20260509121527 68 247 1.7 4.3 0.00 0.02 0.00 90 1010.8
20260509121025 68 320 1.7 4.3 0.00 0.02 0.00 90 1010.7
20260509120524 68 322 1.7 3.5 0.00 0.02 0.00 90 1010.7
20260509120021 68 2 1.7 3.5 0.00 0.02 0.00 90 1010.7
20260509115520 68 35 1.7 3.5 0.00 0.02 0.00 90 1010.8
20260509115018 68 19 1.7 4.3 0.00 0.07 0.00 90 1010.5
20260509114516 68 353 1.7 3.5 0.00 0.17 0.00 90 1010.3
20260509114053 68 360 1.7 3.5 0.00 0.17 0.00 90 1010.4
20260509113531 68 281 1.7 3.5 0.00 0.17 0.00 90 1010.3
20260509113049 68 332 1.7 3.5 0.00 0.17 0.00 89 1010.2
20260509112548 68 350 2.6 5.2 0.00 0.17 0.00 89 1010.0
20260509112026 68 327 2.6 6.1 0.00 0.17 0.00 88 1010.0
20260509111525 68 326 2.6 4.3 0.00 0.17 0.00 88 1009.8
20260509111023 68 295 2.6 5.2 0.00 0.17 0.00 87 1009.8
20260509110521 68 296 2.6 6.1 0.00 0.17 0.00 86 1009.6
20260509110039 68 314 1.7 4.3 0.00 0.17 0.00 86 1009.5
20260509105517 68 272 1.7 4.3 0.00 0.17 0.00 85 1009.6
20260509105115 68 251 1.7 3.5 0.00 0.17 0.00 84 1009.4
20260509104532 69 265 1.7 4.3 0.00 0.17 0.00 84 1009.6
20260509104030 69 238 1.7 3.5 0.00 0.17 0.00 83 1009.4
20260509103528 69 257 1.7 3.5 0.00 0.17 0.00 83 1009.4
20260509103026 69 252 1.7 4.3 0.00 0.17 0.00 83 1009.4
20260509102524 69 226 3.5 5.2 0.00 0.17 0.00 83 1009.4
20260509102022 69 223 1.7 4.3 0.00 0.19 0.00 82 1009.4
20260509101519 69 234 1.7 3.5 0.00 0.27 0.00 81 1009.3
20260509101017 69 230 1.7 3.5 0.00 0.30 0.00 81 1009.3
20260509100535 69 243 0.9 3.5 0.00 0.30 0.00 80 1009.3
20260509100033 70 245 0.9 2.6 0.00 0.30 0.00 80 1009.2
20260509095532 70 297 0.9 2.6 0.00 0.30 0.00 80 1009.3
20260509095029 70 297 0.9 2.6 0.00 0.30 0.00 79 1009.2
20260509094628 70 329 0.9 2.6 0.00 0.30 0.00 78 1009.0
20260509094025 71 359 0.9 2.6 0.00 0.30 0.00 77 1008.8
20260509093523 71 346 0.9 3.5 0.00 0.30 0.00 76 1008.6
20260509093101 72 333 1.7 2.6 0.00 0.31 0.00 74 1008.5
20260509092518 73 328 1.7 2.6 0.00 0.31 0.00 71 1008.4
20260509092016 73 353 1.7 4.3 0.00 0.31 0.00 68 1008.5
20260509091534 73 344 3.5 7.8 0.00 0.31 0.00 67 1008.5
20260509091033 73 1 2.6 5.2 0.00 0.31 0.00 69 1008.4
20260509090531 73 25 2.6 4.3 0.00 0.31 0.00 73 1008.3
20260509090049 72 5 3.5 6.1 0.00 0.31 0.00 75 1008.3
20260509085527 72 3 4.3 7.8 0.00 0.31 0.00 78 1008.3
20260509085026 71 40 5.2 13.9 0.00 0.31 0.00 82 1008.2
20260509084524 70 236 3.5 7.0 0.00 0.31 0.00 85 1007.2
20260509084021 70 208 3.5 9.6 0.00 0.31 0.00 85 1006.9
20260509083519 70 206 2.6 7.0 0.00 0.31 0.00 84 1006.7
20260509083017 70 174 2.6 5.2 0.00 0.31 0.00 84 1006.7
20260509082535 70 128 2.6 5.2 0.00 0.31 0.00 84 1006.4
20260509082033 70 173 2.6 6.1 0.00 0.31 0.00 84 1006.2
20260509081530 70 183 3.5 7.0 0.00 0.31 0.00 85 1006.2
20260509081028 70 196 2.6 5.2 0.00 0.31 0.00 85 1006.6
20260509080526 70 171 2.6 5.2 0.00 0.31 0.00 85 1007.0
20260509080024 70 181 1.7 4.3 0.00 0.31 0.00 85 1007.6
20260509075543 70 234 1.7 4.3 0.00 0.31 0.00 86 1008.3
20260509075020 70 218 2.6 7.0 0.00 0.31 0.00 86 1008.7
20260509074518 70 209 2.6 8.7 0.00 0.31 0.00 87 1009.0
20260509074016 70 216 3.5 7.8 0.00 0.31 0.00 88 1009.5
20260509073534 70 214 3.5 8.7 0.00 0.31 0.00 88 1009.7
20260509073033 70 216 3.5 7.8 0.00 0.31 0.00 88 1009.6
20260509072531 70 220 5.2 14.8 0.00 0.31 0.00 89 1009.7
20260509072029 70 216 7.0 13.0 0.00 0.31 0.00 89 1010.0
20260509071547 70 207 4.3 12.2 0.00 0.32 0.00 89 1010.1
20260509071025 70 217 5.2 12.2 0.00 0.36 0.00 89 1010.2
20260509070543 70 221 4.3 8.7 0.00 0.41 0.00 89 1010.7
20260509070021 70 224 5.2 11.3 0.00 0.44 0.00 89 1010.8
20260509065520 70 218 4.3 9.6 0.00 0.50 0.00 89 1010.8
20260509065017 70 220 5.2 9.6 0.00 0.52 0.00 90 1011.0
20260509064535 69 211 3.5 7.0 0.00 0.52 0.00 90 1011.0
20260509064034 69 219 2.6 4.3 0.00 0.52 0.00 91 1011.2
20260509063531 69 228 1.7 4.3 0.00 0.52 0.00 90 1011.4
20260509063029 69 221 1.7 2.6 0.00 0.52 0.00 90 1011.4
20260509062527 69 217 1.7 2.6 0.00 0.52 0.00 89 1011.3
20260509062025 69 238 0.9 2.6 0.00 0.52 0.00 89 1011.3
20260509061543 70 246 1.7 2.6 0.00 0.52 0.00 89 1011.4
20260509061021 69 247 1.7 3.5 0.00 0.52 0.00 89 1011.4
20260509060519 69 234 1.7 3.5 0.00 0.52 0.00 89 1011.3
20260509060017 69 225 0.9 1.7 0.00 0.52 0.00 89 1011.3
20260509055535 70 304 0.9 1.7 0.00 0.52 0.00 89 1011.4
20260509055033 70 228 0.9 2.6 0.00 0.52 0.00 88 1011.1
20260509054531 70 215 0.0 1.7 0.00 0.52 0.00 88 1011.1
20260509054029 70 15 0.0 1.7 0.00 0.52 0.00 88 1011.3
20260509053528 70 177 0.0 1.7 0.00 0.52 0.00 87 1011.3
20260509053026 70 343 0.0 1.7 0.00 0.52 0.00 87 1011.7
20260509052523 71 84 0.0 0.9 0.00 0.52 0.00 87 1011.7
20260509052042 71 48 2.6 3.5 0.00 0.52 0.00 86 1011.9
20260509051520 71 43 2.6 4.3 0.00 0.52 0.00 86 1012.0
20260509051018 71 29 1.7 3.5 0.00 0.52 0.00 86 1011.8
20260509050517 71 6 2.6 6.1 0.00 0.52 0.00 86 1011.8
20260509050015 71 1 2.6 5.2 0.00 0.52 0.52 86 1011.8
20260509045553 71 36 0.9 1.7 0.00 0.52 0.52 85 1011.0
20260509045031 71 151 0.0 1.7 0.00 0.52 0.52 85 1010.8
20260509044550 71 140 0.9 3.5 0.00 0.52 0.52 84 1010.7
20260509044027 71 180 0.9 2.6 0.00 0.52 0.52 84 1010.4
20260509043525 72 161 0.9 1.7 0.00 0.52 0.52 84 1010.3
20260509043023 72 184 0.9 3.5 0.00 0.52 0.52 84 1010.2
20260509042521 72 180 0.9 2.6 0.00 0.52 0.52 84 1010.1
20260509042019 72 168 0.9 3.5 0.00 0.52 0.52 84 1010.1
20260509041517 72 176 0.9 3.5 0.00 0.52 0.52 84 1010.1
20260509041034 71 189 0.9 2.6 0.00 0.52 0.52 84 1010.1
20260509040532 72 179 0.9 3.5 0.00 0.52 0.52 84 1010.1
20260509040031 72 156 0.9 1.7 0.00 0.52 0.52 83 1010.3
20260509035649 72 164 0.9 1.7 0.00 0.52 0.52 83 1010.2
20260509035026 72 139 0.0 1.7 0.00 0.52 0.52 82 1010.2
20260509034525 72 127 1.7 3.5 0.00 0.52 0.52 83 1010.5
20260509034023 72 117 1.7 3.5 0.00 0.52 0.52 83 1010.4
20260509033521 72 91 1.7 4.3 0.00 0.52 0.52 83 1010.6
20260509033019 72 70 2.6 5.2 0.00 0.52 0.52 83 1010.7
20260509032558 72 64 3.5 5.2 0.00 0.52 0.52 83 1010.4
20260509032015 72 58 2.6 4.3 0.00 0.52 0.52 82 1010.4
20260509031554 72 67 2.6 4.3 0.00 0.52 0.52 82 1010.2
20260509031031 72 104 1.7 5.2 0.00 0.52 0.52 82 1009.8
20260509030529 72 105 0.9 3.5 0.00 0.52 0.52 82 1009.4
20260509030027 72 128 2.6 5.2 0.00 0.52 0.52 82 1009.0
20260509025526 72 161 1.7 5.2 0.00 0.52 0.52 82 1009.0
20260509025024 72 143 1.7 5.2 0.00 0.52 0.52 81 1009.1
20260509024522 72 145 1.7 3.5 0.00 0.52 0.52 81 1009.1
20260509024040 72 150 1.7 4.3 0.00 0.52 0.52 81 1009.2
20260509023518 72 135 1.7 4.3 0.00 0.52 0.52 81 1009.0
20260509023037 72 176 0.9 4.3 0.00 0.52 0.52 81 1008.7
20260509022555 73 156 1.7 4.3 0.00 0.52 0.52 80 1008.7
20260509022053 73 188 1.7 5.2 0.00 0.52 0.52 80 1008.6
20260509021531 73 183 1.7 5.2 0.00 0.52 0.52 80 1008.4
20260509021049 73 180 1.7 4.3 0.00 0.52 0.52 80 1008.2
20260509020527 73 186 1.7 6.1 0.00 0.52 0.52 79 1008.0
20260509020025 73 172 2.6 5.2 0.00 0.52 0.52 79 1008.0
20260509015523 73 192 2.6 5.2 0.00 0.52 0.52 79 1008.1
20260509015021 73 186 2.6 5.2 0.00 0.52 0.52 79 1008.3
20260509014519 73 183 2.6 6.1 0.00 0.52 0.52 78 1008.4
20260509014017 73 174 1.7 5.2 0.00 0.52 0.52 78 1008.6
20260509013535 73 155 0.9 3.5 0.00 0.52 0.52 78 1008.7
20260509013032 73 168 0.9 3.5 0.00 0.52 0.52 77 1008.7
20260509012530 74 145 1.7 3.5 0.00 0.52 0.52 77 1009.0
20260509012027 74 172 0.9 3.5 0.00 0.52 0.52 77 1009.0
20260509011524 74 169 0.9 2.6 0.00 0.52 0.52 77 1009.1
20260509011022 74 163 0.9 2.6 0.00 0.52 0.52 77 1008.9
20260509010540 74 190 0.9 2.6 0.00 0.52 0.52 76 1008.6
20260509010018 74 147 0.9 3.5 0.00 0.52 0.52 76 1008.6
20260509005516 74 176 1.7 3.5 0.00 0.52 0.52 76 1008.6
20260509005034 74 181 1.7 5.2 0.00 0.52 0.52 76 1008.6
20260509004532 74 202 1.7 4.3 0.00 0.52 0.52 75 1008.5
20260509004030 74 192 2.6 8.7 0.00 0.52 0.52 75 1008.5
20260509003528 74 196 1.7 3.5 0.00 0.52 0.52 75 1008.4
20260509003025 74 215 1.7 6.1 0.00 0.52 0.52 75 1008.4
20260509002524 74 171 1.7 3.5 0.00 0.52 0.52 74 1008.3
20260509002022 75 188 1.7 6.1 0.00 0.52 0.52 74 1008.4
20260509001520 75 210 1.7 4.3 0.00 0.52 0.52 74 1008.2
20260509001018 75 191 1.7 4.3 0.00 0.52 0.52 73 1008.2
20260509000516 75 176 2.6 7.0 0.00 0.52 0.52 73 1008.2
20260509000034 75 191 1.7 4.3 0.00 0.52 0.52 72 1008.4
20260508235532 75 196 1.7 3.5 0.00 0.52 0.52 72 1008.4
20260508235050 75 207 1.7 4.3 0.00 0.52 0.52 72 1008.6
20260508234527 75 198 2.6 5.2 0.00 0.52 0.52 72 1008.7
20260508234026 75 168 1.7 4.3 0.00 0.52 0.52 71 1008.8
20260508233524 75 161 2.6 5.2 0.00 0.52 0.52 71 1008.8
20260508233022 75 161 1.7 5.2 0.00 0.52 0.52 71 1008.8
20260508232520 76 176 1.7 5.2 0.00 0.52 0.52 70 1008.7
20260508232019 76 187 1.7 4.3 0.00 0.52 0.52 69 1008.8
20260508231537 76 190 2.6 6.1 0.00 0.52 0.52 69 1008.8
20260508231015 76 172 2.6 6.1 0.00 0.52 0.52 68 1008.6
20260508230534 77 160 1.7 3.5 0.00 0.52 0.52 67 1008.7
20260508230031 77 204 2.6 5.2 0.00 0.52 0.52 67 1008.7
20260508225529 77 207 2.6 6.1 0.00 0.52 0.52 66 1008.8
20260508225027 77 187 2.6 5.2 0.00 0.52 0.52 66 1008.7
20260508224525 78 155 2.6 5.2 0.00 0.52 0.52 65 1008.6
20260508224022 78 204 1.7 6.1 0.00 0.52 0.52 64 1008.8
20260508223520 79 158 2.6 6.1 0.00 0.52 0.52 63 1008.7
20260508223019 78 212 3.5 7.8 0.00 0.52 0.52 64 1008.8
20260508222516 78 186 2.6 5.2 0.00 0.52 0.52 64 1008.8
20260508222035 79 187 2.6 7.0 0.00 0.52 0.52 63 1008.8
20260508221533 79 177 2.6 7.8 0.00 0.52 0.52 62 1008.7
20260508221031 79 178 2.6 9.6 0.00 0.52 0.52 61 1008.8
20260508220528 79 162 2.6 7.0 0.00 0.52 0.52 60 1008.7
20260508220026 79 193 1.7 4.3 0.00 0.52 0.52 61 1008.8
20260508215545 79 182 2.6 7.0 0.00 0.52 0.52 61 1008.8
20260508215022 79 175 3.5 7.0 0.00 0.52 0.52 60 1008.8
20260508214520 79 184 2.6 6.1 0.00 0.52 0.52 59 1009.0
20260508214018 79 158 4.3 12.2 0.00 0.52 0.52 59 1009.0
20260508213536 80 192 2.6 7.0 0.00 0.52 0.52 58 1009.0
20260508213034 80 200 2.6 6.1 0.00 0.52 0.52 58 1009.0
20260508212531 79 185 1.7 6.1 0.00 0.52 0.52 58 1009.1
20260508212029 79 184 2.6 6.1 0.00 0.52 0.52 58 1009.3
20260508211527 80 199 2.6 7.0 0.00 0.52 0.52 58 1009.4
20260508211025 79 158 1.7 7.8 0.00 0.52 0.52 59 1009.4
20260508210523 79 194 2.6 8.7 0.00 0.52 0.52 59 1009.5
20260508210021 79 179 2.6 7.0 0.00 0.52 0.52 59 1009.6
20260508205519 79 190 2.6 7.0 0.00 0.52 0.52 58 1009.8
20260508205018 79 209 1.7 5.2 0.00 0.52 0.52 58 1009.6
20260508204516 78 185 2.6 5.2 0.00 0.52 0.52 59 1009.4
20260508204033 78 126 2.6 7.8 0.00 0.52 0.52 60 1009.5
20260508203531 77 110 2.6 6.1 0.00 0.52 0.52 60 1009.5
20260508203029 77 179 2.6 6.1 0.00 0.52 0.52 60 1009.9
20260508202528 76 197 1.7 5.2 0.00 0.52 0.52 61 1010.5
20260508202046 76 178 1.7 5.2 0.00 0.52 0.52 62 1010.7
20260508201524 74 209 2.6 7.0 0.00 0.52 0.52 64 1010.8
20260508201021 74 193 2.6 7.0 0.00 0.52 0.52 65 1010.9
20260508200519 74 202 2.6 4.3 0.00 0.52 0.52 65 1011.1
20260508200017 74 207 2.6 5.2 0.00 0.52 0.52 65 1011.3
20260508195515 75 211 3.5 8.7 0.00 0.52 0.52 64 1011.3
20260508195033 76 213 2.6 7.8 0.00 0.52 0.52 63 1011.2
20260508194551 76 210 2.6 6.1 0.00 0.52 0.52 62 1011.1
20260508194028 76 213 1.7 6.1 0.00 0.52 0.52 61 1011.1
20260508193526 76 210 2.6 7.8 0.00 0.52 0.52 62 1011.2
20260508193024 76 220 3.5 7.0 0.00 0.52 0.52 61 1011.1
20260508192522 76 179 2.6 7.0 0.00 0.52 0.52 61 1011.1
20260508192041 76 201 2.6 6.1 0.00 0.52 0.52 61 1011.1
20260508191518 77 171 2.6 6.1 0.00 0.52 0.52 61 1011.2
20260508191036 76 202 2.6 6.1 0.00 0.52 0.52 61 1011.2
20260508190534 77 201 2.6 6.1 0.00 0.52 0.52 60 1011.4
20260508190032 77 226 2.6 5.2 0.00 0.52 0.52 60 1011.5
20260508185530 78 152 2.6 6.1 0.00 0.52 0.52 59 1011.3
20260508185029 78 147 2.6 6.1 0.00 0.52 0.52 58 1011.2
20260508184527 78 183 1.7 5.2 0.00 0.52 0.52 58 1011.4
20260508184025 77 194 2.6 7.8 0.00 0.52 0.52 59 1011.5
20260508183523 78 213 2.6 6.1 0.00 0.52 0.52 58 1011.5
20260508183021 78 224 1.7 4.3 0.00 0.52 0.52 58 1011.6
20260508182519 78 214 1.7 6.1 0.00 0.52 0.52 57 1011.7
20260508182017 78 216 2.6 5.2 0.00 0.52 0.52 58 1011.8
20260508181515 78 173 1.7 5.2 0.00 0.52 0.52 58 1011.8
20260508181033 77 179 1.7 5.2 0.00 0.52 0.52 59 1011.8
20260508180531 77 198 1.7 4.3 0.00 0.52 0.52 59 1012.0
20260508180029 77 198 2.6 6.1 0.00 0.52 0.52 59 1012.2
20260508175527 76 219 3.5 7.8 0.00 0.52 0.52 59 1012.2
20260508175025 78 208 2.6 6.1 0.00 0.52 0.52 57 1012.2
20260508174523 78 196 2.6 6.1 0.00 0.52 0.52 57 1012.2